CZ-3B DEB, 40191

Orbit data source: Space-Track

CZ-3B DEB, 40191 is space debris in HEO originally from a launch on Mon, 19 Dec 2011 UTC launched from the Xichang Space Center, China (XSC). Debris objects in space refer to the collection of defunct objects orbiting the Earth. Examples of debris include non-operational satellites, rocket bodies, and fragments generated from explosions, collisions, or faulty payload assembly.

Loading next visibility...
Identifier
40191, 2011-077Q
Orbit
HEO
Country
Flag of CNCN / PRC
Related business
Manufacturer
CALT
Mission
Spacecraft
Bus & Motor
Unknown
Mass
Unknown
Launch date (UTC)
2011-12-19 (15 years ago)
Launch vehicle
Unknown
Launch site
Xichang Space Center, China (XSC)
Object type
Payload
Rocket body
Debris
Shape & HBR
Unknown shape, 0.2 m
Radar Cross Section
Medium (>0.1 m² and <1 m²)

Expand to show TLE details & history
Last TLE update: 1 week ago

TLE from 1 week ago
0 CZ-3B DEB
1 40191U 11077Q   26247.94736910  .00000420  00000-0 -18549-3 0  9998
2 40191  25.6922 225.8821 7472473 246.6974  22.9882  1.95224481 81357
Epoch: 2026-09-04T22:44Z
TLE epoch observation values (Epoch: 2026-09-04T22:44:12.690Z)
Latitude
-0.00041°
Longitude
-99.36578°
Altitude
10,535.612 km
Speed
5.691 km/s
True Right ascension
15h 03m 00s
True Declination
0° 00' 01"
Sunlit
Object was in daylight at epoch
Visualization orbit readout
Latitude
Unknown
Longitude
Unknown
Altitude
Unknown
Speed
Unknown
Apparent Right ascension
Unknown
Apparent Declination
Unknown
Sunlit
N/A
Visualization observer readout
Local Sidereal Time
17:28:23
Azimuth
Unknown
Elevation
Unknown
Doppler factor
Unknown
Orbital elements
Apogee altitude
40,878.662 km
Perigee altitude
457.921 km
Semi-major axis
27,046.428 km
Eccentricity
0.74725
Inclination
25.6922°
RAAN
225.8821°
Arg. of periapsis
246.6974°
True anomaly
113.36102°
Mean anomaly
22.9882°
Eccentric anomaly
60.10577°
Mean motion
0.48795 °/min
Orbital period
737.78 mins
BSTAR
-0.00018549
Loading maneuver chart data...
Computing Atmospheric mass density...
Loading historical data...
Loading historical data...
Loading historical data...
Loading historical data...
Loading historical data...
Loading historical data...
Loading historical data...

Documentation

Showing up to 5 results
|